• In Österreich
  • Länderverzeichnis
  • Für 7 Tage
  • Wassertemperatur
  • Satellitenkarten
  • Wetterkarte
  • News
  • Widgets
  • user-avatar
    Anmelden

    Stündliche Wetter Warna

    Heute, 12 Dezember, Dienstag

    Zeit Temperatur Niederschläge Wind Luftdruck Luftfeuchtigkeit
    00:00 +5°C° 0 mm 5 m/S 748 mmHg 81%
    01:00 +5°C° 0 mm 5 m/S 748 mmHg 81%
    02:00 +5°C° 0 mm 4 m/S 747 mmHg 85%
    03:00 +5°C° 0 mm 5 m/S 747 mmHg 85%
    04:00 +3°C° 0 mm 5 m/S 747 mmHg 84%
    05:00 +3°C° 0 mm 5 m/S 747 mmHg 83%
    06:00 +3°C° 0 mm 5 m/S 747 mmHg 82%
    07:00 +3°C° 0 mm 5 m/S 747 mmHg 80%
    08:00 +3°C° 0 mm 5 m/S 748 mmHg 78%
    09:00 +6°C° 0 mm 4 m/S 748 mmHg 70%
    10:00 +8°C° 0 mm 4 m/S 748 mmHg 62%
    11:00 +10°C° 0 mm 4 m/S 748 mmHg 53%
    12:00 +11°C° 0 mm 4 m/S 748 mmHg 50%
    13:00 +12°C° 0 mm 3 m/S 748 mmHg 47%
    14:00 +13°C° 0 mm 3 m/S 748 mmHg 44%
    15:00 +12°C° 0 mm 3 m/S 748 mmHg 48%
    16:00 +11°C° 0 mm 3 m/S 749 mmHg 51%
    17:00 +10°C° 0 mm 3 m/S 749 mmHg 55%
    18:00 +9°C° 0 mm 3 m/S 749 mmHg 56%
    19:00 +9°C° 0 mm 2 m/S 749 mmHg 56%
    20:00 +9°C° 0 mm 2 m/S 749 mmHg 57%
    21:00 +9°C° 0 mm 2 m/S 749 mmHg 56%
    22:00 +9°C° 0 mm 2 m/S 749 mmHg 56%
    23:00 +8°C° 0 mm 2 m/S 749 mmHg 56%

    Morgen, 13 Dezember, Mittwoch

    Zeit Temperatur Niederschläge Wind Luftdruck Luftfeuchtigkeit
    00:00 +8°C° 0 mm 2 m/S 749 mmHg 57%
    01:00 +8°C° 0 mm 2 m/S 749 mmHg 57%
    02:00 +8°C° 0 mm 2 m/S 749 mmHg 57%
    03:00 +8°C° 0 mm 2 m/S 749 mmHg 58%
    04:00 +8°C° 0 mm 2 m/S 748 mmHg 59%
    05:00 +7°C° 0 mm 2 m/S 748 mmHg 60%
    06:00 +7°C° 0 mm 2 m/S 748 mmHg 61%
    07:00 +7°C° 0 mm 2 m/S 748 mmHg 61%
    08:00 +7°C° 0 mm 2 m/S 748 mmHg 62%
    09:00 +9°C° 0 mm 2 m/S 748 mmHg 58%
    10:00 +10°C° 0 mm 2 m/S 749 mmHg 54%
    11:00 +13°C° 0 mm 2 m/S 749 mmHg 50%
    12:00 +14°C° 0 mm 2 m/S 748 mmHg 48%
    13:00 +14°C° 0 mm 2 m/S 748 mmHg 47%
    14:00 +15°C° 0 mm 2 m/S 747 mmHg 46%
    15:00 +14°C° 0 mm 2 m/S 747 mmHg 51%
    16:00 +12°C° 0 mm 2 m/S 747 mmHg 55%
    17:00 +10°C° 0 mm 2 m/S 747 mmHg 60%
    18:00 +10°C° 0 mm 2 m/S 747 mmHg 61%
    19:00 +10°C° 0 mm 2 m/S 746 mmHg 63%
    20:00 +9°C° 0 mm 2 m/S 746 mmHg 64%
    21:00 +9°C° 0 mm 2 m/S 746 mmHg 64%
    22:00 +9°C° 0 mm 2 m/S 746 mmHg 64%
    23:00 +9°C° 0 mm 2 m/S 745 mmHg 64%

    übermorgen, 14 Dezember, Donnerstag

    Zeit Temperatur Niederschläge Wind Luftdruck Luftfeuchtigkeit
    00:00 +9°C° 0 mm 2 m/S 745 mmHg 65%
    01:00 +9°C° 0 mm 2 m/S 745 mmHg 65%
    02:00 +9°C° 0 mm 2 m/S 745 mmHg 66%
    03:00 +9°C° 0 mm 2 m/S 744 mmHg 67%
    04:00 +9°C° 0 mm 2 m/S 744 mmHg 69%
    05:00 +8°C° 0 mm 2 m/S 744 mmHg 71%
    06:00 +8°C° 0,1 mm 3 m/S 744 mmHg 76%
    07:00 +8°C° 0,1 mm 3 m/S 745 mmHg 81%
    08:00 +8°C° 0,1 mm 3 m/S 745 mmHg 86%
    09:00 +8°C° 0,2 mm 3 m/S 745 mmHg 83%
    10:00 +9°C° 0,2 mm 3 m/S 745 mmHg 81%
    11:00 +9°C° 0,2 mm 3 m/S 745 mmHg 78%
    12:00 +10°C° 0 mm 3 m/S 745 mmHg 71%
    13:00 +11°C° 0 mm 3 m/S 745 mmHg 64%
    14:00 +11°C° 0 mm 3 m/S 745 mmHg 57%
    15:00 +10°C° 0 mm 3 m/S 745 mmHg 59%
    16:00 +9°C° 0 mm 2 m/S 745 mmHg 61%
    17:00 +9°C° 0 mm 2 m/S 745 mmHg 63%
    18:00 +8°C° 0 mm 2 m/S 745 mmHg 65%
    19:00 +8°C° 0 mm 2 m/S 745 mmHg 67%
    20:00 +7°C° 0 mm 2 m/S 745 mmHg 68%
    21:00 +7°C° 0 mm 2 m/S 745 mmHg 70%
    22:00 +7°C° 0 mm 2 m/S 745 mmHg 71%
    23:00 +7°C° 0 mm 2 m/S 745 mmHg 73%

    15 Dezember, Freitag

    Zeit Temperatur Niederschläge Wind Luftdruck Luftfeuchtigkeit
    00:00 +7°C° 0 mm 3 m/S 745 mmHg 77%
    01:00 +7°C° 0 mm 3 m/S 744 mmHg 82%
    02:00 +7°C° 0 mm 3 m/S 744 mmHg 86%
    03:00 +5°C° 0 mm 3 m/S 744 mmHg 88%
    04:00 +5°C° 0 mm 3 m/S 744 mmHg 89%
    05:00 +5°C° 0 mm 3 m/S 744 mmHg 90%
    06:00 +5°C° 0 mm 3 m/S 744 mmHg 90%
    07:00 +5°C° 0 mm 3 m/S 744 mmHg 90%
    08:00 +5°C° 0 mm 3 m/S 744 mmHg 89%
    09:00 +8°C° 0 mm 3 m/S 744 mmHg 83%
    10:00 +9°C° 0 mm 3 m/S 744 mmHg 76%
    11:00 +11°C° 0 mm 3 m/S 744 mmHg 70%
    12:00 +11°C° 0 mm 4 m/S 744 mmHg 67%
    13:00 +12°C° 0 mm 4 m/S 743 mmHg 65%
    14:00 +13°C° 0 mm 4 m/S 743 mmHg 63%
    15:00 +12°C° 0 mm 4 m/S 743 mmHg 67%
    16:00 +10°C° 0 mm 5 m/S 743 mmHg 72%
    17:00 +9°C° 0 mm 5 m/S 742 mmHg 77%
    18:00 +9°C° 0 mm 6 m/S 742 mmHg 79%
    19:00 +9°C° 0 mm 6 m/S 742 mmHg 81%
    20:00 +9°C° 0 mm 7 m/S 742 mmHg 83%
    21:00 +9°C° 0 mm 7 m/S 741 mmHg 83%
    22:00 +9°C° 0 mm 8 m/S 741 mmHg 82%
    23:00 +9°C° 0 mm 8 m/S 741 mmHg 82%

    16 Dezember, Samstag

    Zeit Temperatur Niederschläge Wind Luftdruck Luftfeuchtigkeit
    00:00 +9°C° 0 mm 8 m/S 741 mmHg 82%
    01:00 +9°C° 0 mm 8 m/S 740 mmHg 82%
    02:00 +9°C° 0 mm 8 m/S 740 mmHg 81%
    03:00 +8°C° 0 mm 9 m/S 740 mmHg 82%
    04:00 +8°C° 0 mm 9 m/S 740 mmHg 83%
    05:00 +10°C° 0 mm 9 m/S 739 mmHg 84%
    06:00 +10°C° 0 mm 9 m/S 739 mmHg 83%
    07:00 +10°C° 0 mm 9 m/S 740 mmHg 83%
    08:00 +10°C° 0 mm 9 m/S 740 mmHg 83%
    09:00 +11°C° 0 mm 9 m/S 740 mmHg 77%
    10:00 +12°C° 0 mm 9 m/S 740 mmHg 72%
    11:00 +13°C° 0 mm 9 m/S 741 mmHg 66%
    12:00 +15°C° 0 mm 8 m/S 740 mmHg 63%
    13:00 +15°C° 0 mm 8 m/S 740 mmHg 60%
    14:00 +16°C° 0 mm 8 m/S 740 mmHg 57%
    15:00 +15°C° 0 mm 7 m/S 740 mmHg 61%
    16:00 +14°C° 0 mm 6 m/S 741 mmHg 65%
    17:00 +13°C° 0 mm 6 m/S 741 mmHg 69%
    18:00 +12°C° 0 mm 5 m/S 741 mmHg 72%
    19:00 +12°C° 0 mm 5 m/S 742 mmHg 75%
    20:00 +11°C° 0 mm 4 m/S 742 mmHg 78%
    21:00 +10°C° 0,3 mm 4 m/S 742 mmHg 79%
    22:00 +8°C° 0,3 mm 4 m/S 743 mmHg 81%
    23:00 +9°C° 0,3 mm 3 m/S 743 mmHg 82%

    17 Dezember, Sonntag

    Zeit Temperatur Niederschläge Wind Luftdruck Luftfeuchtigkeit
    00:00 +7°C° 0,9 mm 4 m/S 743 mmHg 83%
    01:00 +6°C° 0,9 mm 5 m/S 743 mmHg 84%
    02:00 +6°C° 0,9 mm 5 m/S 744 mmHg 85%
    03:00 +5°C° 1,4 mm 5 m/S 744 mmHg 85%
    04:00 +5°C° 1,4 mm 5 m/S 744 mmHg 84%
    05:00 +5°C° 1,4 mm 5 m/S 745 mmHg 84%
    06:00 +5°C° 0,7 mm 5 m/S 745 mmHg 85%
    07:00 +5°C° 0,7 mm 5 m/S 746 mmHg 85%
    08:00 +3°C° 0,7 mm 5 m/S 746 mmHg 86%
    09:00 +5°C° 0,4 mm 4 m/S 747 mmHg 85%
    10:00 +5°C° 0,4 mm 4 m/S 747 mmHg 83%
    11:00 +5°C° 0,4 mm 4 m/S 747 mmHg 82%
    12:00 +5°C° 0,1 mm 4 m/S 747 mmHg 80%
    13:00 +6°C° 0,1 mm 4 m/S 747 mmHg 78%
    14:00 +6°C° 0,1 mm 4 m/S 747 mmHg 76%
    15:00 +6°C° 0,1 mm 4 m/S 747 mmHg 77%
    16:00 +6°C° 0,1 mm 4 m/S 747 mmHg 78%
    17:00 +6°C° 0,1 mm 4 m/S 747 mmHg 78%
    18:00 +5°C° 0,8 mm 4 m/S 748 mmHg 80%
    19:00 +5°C° 0,8 mm 4 m/S 748 mmHg 82%
    20:00 +5°C° 0,8 mm 5 m/S 748 mmHg 83%
    21:00 +5°C° 0,8 mm 5 m/S 748 mmHg 84%
    22:00 +3°C° 0,8 mm 5 m/S 748 mmHg 85%
    23:00 +3°C° 0,8 mm 6 m/S 748 mmHg 86%
    Mehr zeigen